(488304) = 1999 VM188 = 2003 TF7 = 2016 UL67

Discovered at Socorro on 1999-11-15 by LINEAR.

Orbit

Orbit type: Main Belt

Note: WebGL enabled browser required.

epoch2023-02-25.0
epoch JD2460000.5
perihelion date2020-12-29.90532
perihelion JD2459213.40532
argument of perihelion (°)313.08722
ascending node (°)70.08709
inclination (°)12.58635
eccentricity0.1815736
perihelion distance (AU)2.1577868
Tisserand w.r.t. Jupiter3.3
ΔV w.r.t. Earth (km/sec)10.0
semimajor axis (AU)2.6365069
mean anomaly (°)181.21221
mean daily motion (°/day)0.23022920
aphelion distance (AU)3.115
period (years)4.28
P-vector [x]0.90281082
P-vector [y]0.42984429
P-vector [z]0.01290365
Q-vector [x]-0.37809515
Q-vector [y]0.77911042
Q-vector [z]0.50003101
absolute magnitude16.87
phase slope0.15
uncertainty0
referenceMPO 745323
observations used260
oppositions10
arc length (days)8580
first opposition used1999
last opposition used2023
residual rms (arc-secs)0.70
perturbers coarse indicatorM-v
perturbers precise indicator003Ek
first observation date used1999-11-15.0
last observation date used2023-05-13.0
computer nameMPCLINUX
JD of orbit computation2457777.384977
perihelion JD uncertainty (days)1.9395E-04
argument of perihelion uncertainty (°)7.7340E-05
ascending node uncertainty (°)4.0202E-05
inclination uncertainty (°)1.6901E-05
eccentricity uncertainty 1.8847E-07
perihelion distance uncertainty (AU)4.9682E-07
Minimum Orbit Intersection Distances (in AU)
for orbit epoch: 2460000.5, reference: E2023-JE0
Mercury1.82026
Venus1.43975
Earth1.18229
Mars0.73082
Jupiter2.36468
Saturn6.49932
Uranus15.4593
Neptune27.6448

Observations

264 total observations over interval: 1999 11 15.35864 – 2023 05 13.393957
These data are available for download (format description).

Date (UT) J2000 RA J2000 Dec Magn Location Ref
1999 11 15.35864 03 55 20.11 +14 45 36.0 18.6   704 – Lincoln Laboratory ETS, New Mexico MPS 14040
1999 11 15.37295 03 55 19.13 +14 45 39.3 19.2   704 – Lincoln Laboratory ETS, New Mexico MPS 14040
1999 11 15.38726 03 55 18.20 +14 45 42.4 19.0   704 – Lincoln Laboratory ETS, New Mexico MPS 14040
1999 11 15.40169 03 55 17.18 +14 45 45.6 19.3   704 – Lincoln Laboratory ETS, New Mexico MPS 14040
1999 11 15.41601 03 55 16.22 +14 45 48.8 19.5   704 – Lincoln Laboratory ETS, New Mexico MPS 14040
1999 11 17.22753 03 53 17.45 +14 53 09.1 19.2   704 – Lincoln Laboratory ETS, New Mexico MPS 14040
1999 11 17.24304 03 53 16.35 +14 53 13.4 19.2   704 – Lincoln Laboratory ETS, New Mexico MPS 14040
1999 11 17.25865 03 53 15.28 +14 53 17.4 19.4   704 – Lincoln Laboratory ETS, New Mexico MPS 14040
1999 12 05.29372 03 34 00.01 +16 12 18.7 19.8 R 703 – Catalina Sky Survey MPS 312219
1999 12 05.31148 03 33 58.94 +16 12 23.8 18.8 R 703 – Catalina Sky Survey MPS 312219
1999 12 05.32941 03 33 57.82 +16 12 29.0 19.4 R 703 – Catalina Sky Survey MPS 312219
1999 12 05.34710 03 33 56.84 +16 12 33.3 19.6 R 703 – Catalina Sky Survey MPS 312219
2003 10 01.24156 01 01 48.22 -15 46 27.6 19.2 R 699 – Lowell Observatory-LONEOS MPS 87406
2003 10 01.25827 01 01 47.32 -15 46 29.8   699 – Lowell Observatory-LONEOS MPS 87406
2003 10 01.27496 01 01 46.29 -15 46 31.6   699 – Lowell Observatory-LONEOS MPS 87406
2003 10 01.29161 01 01 45.40 -15 46 34.6   699 – Lowell Observatory-LONEOS MPS 87406
2003 10 03.46591 00 59 42.81 -15 50 21.3 20.2   608 – Haleakala-AMOS MPS 87406
2003 10 03.47638 00 59 42.18 -15 50 23.3 21.0   608 – Haleakala-AMOS MPS 87406
2003 10 03.48693 00 59 41.60 -15 50 23.7 21.4   608 – Haleakala-AMOS MPS 87406
2009 01 20.27612 08 13 01.63 +35 29 09.6 20.4 V 703 – Catalina Sky Survey MPS 778817
2009 01 20.28257 08 13 01.27 +35 29 11.9 20.8 V 703 – Catalina Sky Survey MPS 778817
2009 01 20.28911 08 13 00.80 +35 29 14.9 20.6 V 703 – Catalina Sky Survey MPS 778817
2012 11 22.33309 05 52 45.64 +25 50 56.8 19.1 R 926 – Tenagra II Observatory, Nogales MPS 747650
2012 11 22.34512 05 52 45.02 +25 51 01.5 19.1 R 926 – Tenagra II Observatory, Nogales MPS 747651
2012 11 22.35704 05 52 44.40 +25 51 06.8 19.0 R 926 – Tenagra II Observatory, Nogales MPS 747651
2013 01 04.15377 05 07 47.78 +29 38 08.0 19.4 V G96 – Mt. Lemmon Survey MPS 747651
2013 01 04.15976 05 07 47.49 +29 38 09.3 19.5 V G96 – Mt. Lemmon Survey MPS 747651
2013 01 04.16736 05 07 47.10 +29 38 10.8 19.5 V G96 – Mt. Lemmon Survey MPS 747651
2013 01 04.17322 05 07 46.77 +29 38 11.9 19.5 V G96 – Mt. Lemmon Survey MPS 747651
2013 01 04.17906 05 07 46.48 +29 38 12.9 19.5 V G96 – Mt. Lemmon Survey MPS 747651
2014 03 25.40709 12 35 08.22 +14 54 05.8 21.0 V G96 – Mt. Lemmon Survey MPS 747651
2014 03 25.41217 12 35 07.96 +14 54 07.3 21.3 V G96 – Mt. Lemmon Survey MPS 747651
2014 03 25.41724 12 35 07.64 +14 54 08.2 20.6 V G96 – Mt. Lemmon Survey MPS 747651
2014 03 25.42231 12 35 07.40 +14 54 09.8 20.8 V G96 – Mt. Lemmon Survey MPS 747651
2016 10 03.77821 03 02 46.03 +02 14 21.3 19.3 R D29 – Purple Mountain Observatory, XuYi Station MPS 747651
2016 10 03.79235 03 02 45.59 +02 14 22.2 19.7 R D29 – Purple Mountain Observatory, XuYi Station MPS 747651
2016 10 03.80650 03 02 45.15 +02 14 21.6 19.5 R D29 – Purple Mountain Observatory, XuYi Station MPS 747651
2016 10 21.24506 02 50 06.21 +02 17 25.9 18.7 G G45 – Space Surveillance Telescope, Atom Site MPS 1611082
2016 10 21.29624 02 50 03.21 +02 17 28.3 19.5 G G45 – Space Surveillance Telescope, Atom Site MPS 1611082
2016 10 21.29635 02 50 03.20 +02 17 28.6 19.3 G G45 – Space Surveillance Telescope, Atom Site MPS 1611082
2016 10 21.34818 02 50 00.18 +02 17 31.3 19.4 G G45 – Space Surveillance Telescope, Atom Site MPS 1611082
2016 10 21.34909 02 50 00.13 +02 17 31.4 19.1 G G45 – Space Surveillance Telescope, Atom Site MPS 1611082
2016 10 21.39595 02 49 57.37 +02 17 33.3 19.5 G G45 – Space Surveillance Telescope, Atom Site MPS 1611082
2016 10 21.44343 02 49 54.59 +02 17 36.8 19.8 G G45 – Space Surveillance Telescope, Atom Site MPS 1611082
2016 10 21.47583 02 49 52.73 +02 17 38.0 19.1 G G45 – Space Surveillance Telescope, Atom Site MPS 1611082
2016 10 21.49497 02 49 51.61 +02 17 39.3 19.4 G G45 – Space Surveillance Telescope, Atom Site MPS 1611082
2016 10 22.12178 02 49 16.84 +02 18 17.0 19.2 G G45 – Space Surveillance Telescope, Atom Site MPS 1611082
2016 10 22.17665 02 49 13.62 +02 18 21.1 19.5 G G45 – Space Surveillance Telescope, Atom Site MPS 1611082
2016 10 22.23374 02 49 10.26 +02 18 25.1 19.1 G G45 – Space Surveillance Telescope, Atom Site MPS 1611082
2016 10 22.28726 02 49 07.08 +02 18 27.9 19.4 G G45 – Space Surveillance Telescope, Atom Site MPS 1611082
2016 10 22.34010 02 49 03.91 +02 18 31.6 19.5 G G45 – Space Surveillance Telescope, Atom Site MPS 1611082
2016 10 22.39219 02 49 00.86 +02 18 34.6 19.0 G G45 – Space Surveillance Telescope, Atom Site MPS 1611082
2016 10 22.44173 02 48 57.91 +02 18 37.8 19.1 G G45 – Space Surveillance Telescope, Atom Site MPS 1611083
2016 10 22.48287 02 48 55.46 +02 18 40.4 19.5 G G45 – Space Surveillance Telescope, Atom Site MPS 1611083
2016 10 22.50781 02 48 54.02 +02 18 42.7 18.7 G G45 – Space Surveillance Telescope, Atom Site MPS 1611083
2016 10 23.11924 02 48 19.53 +02 19 22.6 18.8 G G45 – Space Surveillance Telescope, Atom Site MPS 1611083
2016 10 23.17485 02 48 16.18 +02 19 27.9 19.5 G G45 – Space Surveillance Telescope, Atom Site MPS 1611083
2016 10 23.17498 02 48 16.20 +02 19 27.1 19.4 G G45 – Space Surveillance Telescope, Atom Site MPS 1611083
2016 10 23.22603 02 48 13.12 +02 19 30.7 19.2 G G45 – Space Surveillance Telescope, Atom Site MPS 1611083
2016 10 23.22616 02 48 13.13 +02 19 31.1 19.4 G G45 – Space Surveillance Telescope, Atom Site MPS 1611083
2016 10 23.28118 02 48 09.80 +02 19 35.2 19.2 G G45 – Space Surveillance Telescope, Atom Site MPS 1611083
2016 10 23.33265 02 48 06.68 +02 19 38.9 19.3 G G45 – Space Surveillance Telescope, Atom Site MPS 1611083
2016 10 23.47657 02 47 57.97 +02 19 49.3 19.5 G G45 – Space Surveillance Telescope, Atom Site MPS 1611083
2016 10 26.40809 02 45 03.70 +02 23 56.0 18.8 V G96 – Mt. Lemmon Survey MPS 740111
2016 10 26.41237 02 45 03.44 +02 23 56.3 18.7 V G96 – Mt. Lemmon Survey MPS 740111
2016 10 26.41665 02 45 03.16 +02 23 56.5 18.9 V G96 – Mt. Lemmon Survey MPS 740111
2016 10 27.36114 02 44 05.79 +02 25 31.2 18.8 V G96 – Mt. Lemmon Survey MPS 740111
2016 10 27.36541 02 44 05.54 +02 25 31.8 18.6 V G96 – Mt. Lemmon Survey MPS 740111
2016 10 27.36971 02 44 05.25 +02 25 32.2 18.7 V G96 – Mt. Lemmon Survey MPS 740111
2016 10 27.37399 02 44 04.97 +02 25 32.3 18.9 V G96 – Mt. Lemmon Survey MPS 740111
2016 10 30.37665 02 40 59.22 +02 31 24.6 19.4 V 703 – Catalina Sky Survey MPS 747651
2016 10 30.38266 02 40 58.72 +02 31 24.1 18.8 V 703 – Catalina Sky Survey MPS 747651
2016 10 30.38866 02 40 58.39 +02 31 26.0 18.9 V 703 – Catalina Sky Survey MPS 747651
2016 10 30.39468 02 40 57.94 +02 31 26.3   703 – Catalina Sky Survey MPS 747651
2016 11 04.46636 02 35 40.20 +02 44 32.3 19.1 w T05 – ATLAS-HKO, Haleakala MPS 747651
2016 11 04.48193 02 35 39.00 +02 44 33.6 18.9 w T05 – ATLAS-HKO, Haleakala MPS 747651
2016 11 04.49893 02 35 38.03 +02 44 37.6 19.2 w T05 – ATLAS-HKO, Haleakala MPS 747651
2016 11 04.53120 02 35 35.91 +02 44 43.2 19.1 w T05 – ATLAS-HKO, Haleakala MPS 747651
2016 11 07.38985 02 32 38.41 +02 53 55.5 18.7 V 703 – Catalina Sky Survey MPS 747651
2016 11 07.39588 02 32 38.04 +02 53 56.7 19.0 V 703 – Catalina Sky Survey MPS 747651
2016 11 07.40189 02 32 37.71 +02 53 59.2 18.9 V 703 – Catalina Sky Survey MPS 747651
2016 11 07.40791 02 32 37.32 +02 53 58.8 19.3 V 703 – Catalina Sky Survey MPS 747651
2016 11 17.95457 02 22 31.92 +03 40 00.8 19.4   J43 – Oukaimeden Observatory, Marrakech MPS 745280
2016 11 17.96317 02 22 31.46 +03 40 03.5 19.5   J43 – Oukaimeden Observatory, Marrakech MPS 745280
2016 11 17.97175 02 22 30.99 +03 40 05.9 19.3   J43 – Oukaimeden Observatory, Marrakech MPS 745280
2016 11 17.98035 02 22 30.52 +03 40 08.8 19.0   J43 – Oukaimeden Observatory, Marrakech MPS 745280
2016 11 18.98163 02 21 39.16 +03 45 28.3 19.0   J43 – Oukaimeden Observatory, Marrakech MPS 745280
